Location: Newark
(41.9364°N, 2.8061°E)
Time: 22:38:17
(UTC+00:00)

A-11 Canister half - Visible Passes

Search period start: 18 February 2020 00:00
Search period end: 28 February 2020 00:00
Orbit: 1517 x 1683 km, 47.2° (Epoch: 17 February)

Date Brightness Start Highest point End Pass type
(mag) Time Alt. Az. Time Alt. Az. Time Alt. Az.
18 Feb 9.2 19:23:58 10° W 19:33:44 64° N 19:38:01 36° ENE visible
18 Feb 9.6 21:29:45 10° WNW 21:36:13 48° WNW 21:36:13 48° WNW visible
19 Feb 9.2 19:00:57 10° W 19:10:45 65° N 19:16:24 28° ENE visible
19 Feb 9.2 21:06:47 10° WNW 21:14:36 62° NW 21:14:36 62° NW visible
19 Feb 11.1 23:12:09 10° WNW 23:12:48 12° WNW 23:12:48 12° WNW visible
20 Feb 9.2 18:37:55 10° W 18:47:47 65° N 18:54:47 21° ENE visible
20 Feb 8.9 20:43:50 10° WNW 20:52:59 75° NNW 20:52:59 75° NNW visible
20 Feb 10.8 22:49:10 10° WNW 22:51:11 18° WNW 22:51:11 18° WNW visible
21 Feb 9.3 18:14:55 10° W 18:24:47 66° N 18:33:11 14° ENE visible
21 Feb 8.8 20:20:51 10° WNW 20:30:38 76° NNE 20:31:23 73° NE visible
21 Feb 10.5 22:26:12 10° WNW 22:29:35 24° WNW 22:29:35 24° WNW visible
22 Feb 9.3 17:51:53 10° W 18:01:49 67° N 18:11:22 10° ENE visible
22 Feb 8.9 19:57:52 10° WNW 20:07:41 74° NNE 20:09:47 58° E visible
22 Feb 10.2 22:03:14 10° WNW 22:07:59 32° W 22:07:59 32° W visible
23 Feb 9.0 19:34:53 10° WNW 19:44:43 73° NNE 19:48:13 44° E visible
23 Feb 9.8 21:40:15 10° WNW 21:46:25 42° W 21:46:25 42° W visible
24 Feb 9.1 19:11:54 10° WNW 19:21:45 71° NNE 19:26:40 33° E visible
24 Feb 9.4 21:17:17 10° WNW 21:24:52 53° W 21:24:52 53° W visible
25 Feb 9.1 18:48:54 10° WNW 18:58:47 70° NNE 19:05:09 24° E visible
25 Feb 9.1 20:54:19 10° WNW 21:03:21 64° SW 21:03:21 64° SW visible
25 Feb 11.1 23:01:00 10° W 23:01:34 11° W 23:01:34 11° W visible
26 Feb 9.2 18:25:55 10° WNW 18:35:49 69° NNE 18:43:40 17° E visible
26 Feb 9.0 20:31:22 10° WNW 20:40:59 69° SW 20:41:52 65° S visible
26 Feb 10.9 22:37:49 10° W 22:40:06 16° W 22:40:06 16° W visible
27 Feb 9.2 18:02:55 10° WNW 18:12:50 68° N 18:22:13 11° E visible
27 Feb 9.0 20:08:23 10° WNW 20:18:05 72° SSW 20:20:26 54° SSE visible
27 Feb 10.6 22:14:40 10° W 22:18:40 20° WSW 22:18:40 20° WSW visible
